Location: Newark
(43.0000°N, 1.6781°W)
Time: 05:15:27
(UTC+00:00)

X-37B - Pass Details

Date: 16 December 2021
Orbit: 334 x 337 km, 45.0° (Epoch: 11 January)

Event Time Altitude Azimuth Distance (km) Brightness Sun altitude
Rises 18:39:32 0° 285° (WNW) 2,106 5.4 -22.2°
Reaches altitude 10° 18:41:35 10° 278° (W) 1,267 4.2 -22.6°
Enters shadow 18:43:18 29° 255° (WSW) 650 2.4 -22.9°
